TimeCST,TemperatureF,Dew PointF,Humidity,Sea Level PressureIn,VisibilityMPH,Wind Direction,Wind SpeedMPH,Gust SpeedMPH,PrecipitationIn,Events,Conditions,WindDirDegrees,DateUTC
12:15 AM,16.5,13.3,87,30.79,10.0,Calm,Calm,-,N/A,,Clear,0,2013-11-12 06:15:00
12:35 AM,14.9,12.2,89,30.79,10.0,NW,4.6,-,N/A,,Clear,310,2013-11-12 06:35:00
12:55 AM,15.1,12.4,89,30.79,10.0,NW,3.5,-,N/A,,Clear,320,2013-11-12 06:55:00
1:15 AM,15.3,12.2,88,30.80,10.0,NNW,4.6,-,N/A,,Clear,330,2013-11-12 07:15:00
1:35 AM,14.9,12.2,89,30.80,10.0,NNW,5.8,-,N/A,,Clear,330,2013-11-12 07:35:00
1:55 AM,14.9,12.0,88,30.80,10.0,NNW,4.6,-,N/A,,Clear,340,2013-11-12 07:55:00
2:15 AM,14.5,11.7,88,30.80,10.0,NNW,4.6,-,N/A,,Clear,330,2013-11-12 08:15:00
2:35 AM,14.4,11.5,88,30.81,10.0,Calm,Calm,-,N/A,,Clear,0,2013-11-12 08:35:00
2:55 AM,13.8,11.1,89,30.82,10.0,Calm,Calm,-,N/A,,Clear,0,2013-11-12 08:55:00
3:15 AM,12.7,10.4,90,30.81,10.0,NW,3.5,-,N/A,,Clear,310,2013-11-12 09:15:00
3:35 AM,12.4,10.0,90,30.80,10.0,NW,4.6,-,N/A,,Clear,320,2013-11-12 09:35:00
3:55 AM,12.2,10.0,91,30.80,10.0,NW,3.5,-,N/A,,Clear,310,2013-11-12 09:55:00
4:15 AM,11.3,9.1,91,30.80,10.0,Calm,Calm,-,N/A,,Clear,0,2013-11-12 10:15:00
4:35 AM,11.3,9.3,92,30.82,10.0,WNW,4.6,-,N/A,,Clear,290,2013-11-12 10:35:00
4:55 AM,10.9,9.3,93,30.82,10.0,WNW,5.8,-,N/A,,Clear,300,2013-11-12 10:55:00
5:15 AM,10.4,8.6,92,30.83,10.0,WNW,4.6,-,N/A,,Clear,300,2013-11-12 11:15:00
5:35 AM,10.8,8.6,91,30.83,10.0,Calm,Calm,-,N/A,,Clear,0,2013-11-12 11:35:00
5:55 AM,10.4,8.6,92,30.84,10.0,NW,3.5,-,N/A,,Clear,310,2013-11-12 11:55:00
6:15 AM,10.2,8.2,92,30.85,10.0,WNW,3.5,-,N/A,,Clear,300,2013-11-12 12:15:00
6:35 AM,10.0,7.9,91,30.86,10.0,WNW,4.6,-,N/A,,Clear,300,2013-11-12 12:35:00
6:55 AM,10.0,7.7,90,30.86,10.0,WNW,3.5,-,N/A,,Clear,290,2013-11-12 12:55:00
7:15 AM,9.7,7.7,92,30.86,10.0,WNW,3.5,-,N/A,,Clear,300,2013-11-12 13:15:00
7:35 AM,10.8,8.6,91,30.86,10.0,Calm,Calm,-,N/A,,Clear,0,2013-11-12 13:35:00
7:55 AM,12.7,10.4,90,30.86,10.0,Calm,Calm,-,N/A,,Clear,0,2013-11-12 13:55:00
8:15 AM,13.5,10.6,88,30.86,10.0,West,3.5,-,N/A,,Clear,280,2013-11-12 14:15:00
8:35 AM,15.4,12.2,87,30.87,7.0,Calm,Calm,-,N/A,,Clear,0,2013-11-12 14:35:00
8:55 AM,17.1,12.9,84,30.87,10.0,West,3.5,-,N/A,,Clear,280,2013-11-12 14:55:00
9:15 AM,18.1,12.4,78,30.87,10.0,Calm,Calm,-,N/A,,Clear,0,2013-11-12 15:15:00
9:35 AM,18.9,12.7,77,30.87,10.0,Calm,Calm,-,N/A,,Clear,0,2013-11-12 15:35:00
9:55 AM,19.4,12.2,74,30.87,10.0,Calm,Calm,-,N/A,,Clear,0,2013-11-12 15:55:00
10:15 AM,20.7,12.4,70,30.86,10.0,Calm,Calm,-,N/A,,Clear,0,2013-11-12 16:15:00
10:35 AM,21.4,12.4,68,30.86,10.0,WSW,3.5,-,N/A,,Clear,250,2013-11-12 16:35:00
10:55 AM,22.5,12.4,65,30.85,10.0,Calm,Calm,-,N/A,,Clear,0,2013-11-12 16:55:00
11:15 AM,23.5,12.6,63,30.85,10.0,Calm,Calm,-,N/A,,Clear,0,2013-11-12 17:15:00
11:35 AM,24.4,13.1,62,30.84,10.0,WSW,4.6,-,N/A,,Clear,240,2013-11-12 17:35:00
11:55 AM,25.9,13.3,59,30.82,10.0,Calm,Calm,-,N/A,,Clear,0,2013-11-12 17:55:00
12:15 PM,27.3,13.3,56,30.79,10.0,SW,5.8,-,N/A,,Clear,220,2013-11-12 18:15:00
12:35 PM,28.0,13.1,54,30.78,10.0,SSW,6.9,-,N/A,,Clear,200,2013-11-12 18:35:00
12:55 PM,29.3,12.0,49,30.77,10.0,SSW,6.9,-,N/A,,Clear,200,2013-11-12 18:55:00
1:15 PM,30.4,12.6,48,30.75,10.0,SW,4.6,-,N/A,,Clear,220,2013-11-12 19:15:00
1:35 PM,31.5,11.8,44,30.74,10.0,SSW,8.1,-,N/A,,Clear,210,2013-11-12 19:35:00
1:55 PM,32.2,11.3,42,30.74,10.0,SW,8.1,-,N/A,,Clear,230,2013-11-12 19:55:00
2:15 PM,33.1,11.1,40,30.72,10.0,SSW,5.8,-,N/A,,Clear,200,2013-11-12 20:15:00
2:35 PM,33.6,11.1,39,30.72,10.0,SSW,4.6,-,N/A,,Clear,210,2013-11-12 20:35:00
2:55 PM,34.2,10.6,38,30.70,10.0,SSW,6.9,-,N/A,,Clear,210,2013-11-12 20:55:00
3:15 PM,34.2,10.4,37,30.70,10.0,South,5.8,-,N/A,,Clear,190,2013-11-12 21:15:00
3:35 PM,34.7,10.2,36,30.69,10.0,SSW,8.1,-,N/A,,Clear,200,2013-11-12 21:35:00
3:55 PM,34.7,9.7,35,30.68,10.0,South,5.8,-,N/A,,Clear,190,2013-11-12 21:55:00
4:15 PM,34.3,9.9,36,30.66,10.0,SSW,6.9,-,N/A,,Clear,200,2013-11-12 22:15:00
4:35 PM,33.8,9.7,37,30.65,10.0,South,6.9,-,N/A,,Clear,180,2013-11-12 22:35:00
4:55 PM,32.9,9.7,38,30.64,10.0,South,5.8,-,N/A,,Clear,180,2013-11-12 22:55:00
5:15 PM,32.0,10.2,40,30.64,10.0,South,4.6,-,N/A,,Clear,170,2013-11-12 23:15:00
5:35 PM,30.7,11.3,44,30.64,10.0,South,4.6,-,N/A,,Clear,170,2013-11-12 23:35:00
5:55 PM,29.8,11.7,47,30.63,10.0,SSE,5.8,-,N/A,,Clear,160,2013-11-12 23:55:00
6:15 PM,29.8,11.7,47,30.63,10.0,South,6.9,-,N/A,,Clear,170,2013-11-13 00:15:00
6:35 PM,30.0,11.3,46,30.62,10.0,South,5.8,-,N/A,,Clear,170,2013-11-13 00:35:00
6:55 PM,29.7,11.3,46,30.63,10.0,South,4.6,-,N/A,,Clear,170,2013-11-13 00:55:00
7:15 PM,28.9,11.7,49,30.63,10.0,South,3.5,-,N/A,,Clear,180,2013-11-13 01:15:00
7:35 PM,28.4,12.2,51,30.63,10.0,South,5.8,-,N/A,,Clear,170,2013-11-13 01:35:00
7:55 PM,28.0,12.2,52,30.63,10.0,SSE,4.6,-,N/A,,Clear,160,2013-11-13 01:55:00
8:15 PM,28.2,12.2,51,30.63,10.0,South,6.9,-,N/A,,Clear,170,2013-11-13 02:15:00
8:35 PM,28.9,12.0,49,30.62,10.0,South,5.8,-,N/A,,Clear,180,2013-11-13 02:35:00
8:55 PM,28.4,12.2,51,30.63,10.0,South,3.5,-,N/A,,Clear,190,2013-11-13 02:55:00
9:15 PM,28.0,12.9,53,30.61,10.0,South,10.4,-,N/A,,Clear,170,2013-11-13 03:15:00
9:35 PM,29.1,12.2,49,30.60,10.0,South,12.7,-,N/A,,Clear,180,2013-11-13 03:35:00
9:55 PM,29.1,12.4,50,30.58,10.0,South,13.8,19.6,N/A,,Clear,180,2013-11-13 03:55:00
10:15 PM,29.1,12.4,50,30.59,10.0,South,11.5,-,N/A,,Clear,190,2013-11-13 04:15:00
10:35 PM,28.4,12.9,52,30.57,10.0,South,12.7,-,N/A,,Clear,190,2013-11-13 04:35:00
10:55 PM,28.4,12.9,52,30.55,10.0,South,12.7,20.7,N/A,,Clear,190,2013-11-13 04:55:00
11:15 PM,28.2,13.1,53,30.54,10.0,South,13.8,19.6,N/A,,Clear,180,2013-11-13 05:15:00
11:35 PM,27.9,13.6,55,30.53,10.0,South,13.8,17.3,N/A,,Clear,190,2013-11-13 05:35:00
11:55 PM,27.1,14.0,58,30.52,10.0,South,13.8,17.3,N/A,,Clear,190,2013-11-13 05:55:00